Flag for U.S.A. Weather past 2 weeks in Nashville, Tennessee, U.S.A.

62 °F

Light rain. Mostly cloudy.

Feels Like: 62 °F
Forecast: 59 / 65 °F
Wind: 6 mph from South

Location: Nashville International Airport

Current Time: Nov 28, 2015 at 9:38:56 AM

Latest Report: Nov 28, 2015 at 8:53 AM

Visibility: 10 mi

Pressure: 30.24 "Hg

Humidity: 83%

Dew point: 57 °F

Location of NashvilleLocation

Historic Weather in Nashville — Graph


Nashville temperature yesterday

Maximum temperature yesterday: 69 °F (at 1:53 PM)
Minimum temperature yesterday: 56 °F (at 5:53 AM)
Average temperature yesterday: 63 °F

Past Weeks' High & Low Weather Summary

High72 °F (Nov 17, 10:53 AM)94% (Nov 18, 9:55 AM)30.54 "Hg (Nov 18, 9:55 AM)
Low22 °F (Nov 23, 2:53 AM)14% (Nov 13, 1:53 PM)29.71 "Hg (Nov 18, 12:53 PM)
Average51 °F58%30.24 "Hg
* Reported Nov 13 7:53 AM — Nov 28 7:53 AM, Nashville, Weather by CustomWeather, © 2015

Note: Actual official high and low records may vary slightly from our data, if they occured in-between our weather recording intervals... More about our weather records


Nashville weather history for previous 24 hours

Time TempWeatherWind HumidityBarometerVisibility
7:53 AM
Sat, Nov 28
62 °FLight rain. Mostly cloudy.6 mph78%30.24 "Hg10 mi
6:53 AM63 °FMore clouds than sun.12 mph75%30.22 "Hg10 mi
5:53 AM63 °FMostly cloudy.12 mph75%30.21 "Hg10 mi
4:53 AM62 °FMostly cloudy.7 mph78%30.21 "Hg10 mi
3:53 AM62 °FOvercast.10 mph78%30.21 "Hg10 mi
2:53 AM64 °FMostly cloudy.9 mph70%30.22 "Hg10 mi
1:53 AM63 °FPassing clouds.6 mph70%30.23 "Hg10 mi
12:53 AM64 °FMostly cloudy.7 mph65%30.23 "Hg10 mi
11:53 PM
Fri, Nov 27
65 °FOvercast.10 mph61%30.25 "Hg10 mi
10:53 PM65 °FMostly cloudy.9 mph61%30.26 "Hg10 mi
9:53 PM64 °FMostly cloudy.7 mph63%30.26 "Hg10 mi
8:53 PM65 °FLight rain. Mostly cloudy.8 mph63%30.25 "Hg10 mi
7:53 PM64 °FOvercast.7 mph65%30.28 "Hg10 mi
6:53 PM66 °FMostly cloudy.3 mph61%30.29 "Hg10 mi
5:53 PM66 °FOvercast.7 mph61%30.27 "Hg10 mi
4:53 PM65 °FOvercast.5 mph63%30.28 "Hg10 mi
3:53 PM69 °FMostly cloudy.7 mph55%30.28 "Hg10 mi
2:53 PM69 °FMore clouds than sun.12 mph55%30.28 "Hg10 mi
1:53 PM69 °FMore clouds than sun.12 mph55%30.29 "Hg10 mi
12:53 PM68 °FMostly cloudy.13 mph57%30.32 "Hg10 mi
11:53 AM67 °FMostly cloudy.12 mph59%30.35 "Hg10 mi
10:53 AM65 °FMostly cloudy.10 mph63%30.39 "Hg10 mi
9:53 AM64 °FMostly cloudy.12 mph63%30.41 "Hg10 mi
Weather by CustomWeather, © 2015

See weather overviewHow to use our weather pages